GFSSE_925_temp_024.txt.gz
Temp
18 18 19 19 19 19 19 19 19 19 19 20 20 20 20 19 18 18 17 17 17 17 17 19 19 19 19 19 19 19 19 18 18 17 17 16 16 16 16 17 17 17 16
18 19 19 19 19 19 19 19 19 19 19 19 19 19 19 19 18 18 18 18 18 17 17 19 19 19 19 19 19 19 20 19 18 17 17 17 16 16 15 16 16 16 16
18 18 18 19 19 19 19 19 18 19 19 19 19 19 19 19 18 18 18 18 18 18 19 19 19 19 19 19 19 19 20 20 19 17 17 17 17 17 16 16 15 15 15
18 19 19 19 19 19 18 18 18 18 19 19 19 18 19 18 18 18 19 18 18 18 19 19 19 19 19 19 19 19 19 18 18 18 18 18 18 17 17 17 16 16 16
17 18 18 19 19 18 18 17 18 18 18 18 19 19 19 18 18 18 19 19 19 19 19 19 19 20 20 19 18 19 18 19 19 18 18 18 17 16 17 17 16 16 16
17 18 18 19 18 18 18 18 18 19 18 19 19 19 18 18 19 19 19 19 19 19 19 19 19 19 19 19 19 18 19 18 18 18 18 17 17 16 17 17 16 16 16
16 18 18 18 18 18 18 18 18 19 19 19 19 19 19 19 19 19 19 19 19 19 19 19 19 19 19 19 19 18 18 18 18 18 17 17 16 16 16 16 16 16 16
16 17 17 17 16 16 18 18 18 19 19 19 19 19 19 19 19 19 19 19 19 19 19 19 19 19 19 19 18 17 18 18 17 17 17 16 16 15 15 15 15 15 15
15 16 15 16 17 16 17 17 19 19 19 19 19 19 19 19 19 19 19 19 19 19 19 19 19 18 18 19 18 18 18 17 17 17 16 15 15 15 14 15 14 13 14
14 13 14 16 16 16 18 19 19 19 19 19 19 19 19 19 19 19 19 19 19 19 19 19 18 18 18 18 18 18 17 17 17 17 16 15 15 14 14 15 15 13 12
14 14 18 16 16 17 18 19 19 19 19 19 19 19 18 19 19 19 19 19 18 18 18 18 18 18 18 18 18 18 17 17 17 16 16 15 14 14 13 14 14 14 12
13 14 16 16 16 17 18 18 19 19 19 19 18 18 18 18 18 18 18 18 18 18 18 17 18 17 17 17 17 17 17 16 16 16 16 15 14 13 13 13 14 14 13
13 15 15 16 17 18 18 18 19 19 18 18 18 18 17 18 18 18 17 18 17 17 17 17 17 17 17 17 17 16 16 16 16 16 16 15 15 13 13 12 12 12 13
15 16 16 16 17 18 18 18 18 18 17 17 18 18 17 17 17 17 17 17 17 17 17 17 17 16 16 16 16 15 15 15 15 15 15 14 14 14 13 12 11 11 11
15 16 16 16 17 17 18 18 18 17 17 17 17 18 18 18 18 17 17 16 16 17 16 16 16 16 16 16 15 15 14 14 14 14 14 14 13 13 12 11 11 10 10
16 16 18 18 18 18 18 18 17 17 17 17 18 18 18 18 17 16 16 16 16 16 16 15 15 15 15 14 14 14 14 13 13 13 13 13 13 12 12 11 10 10 10
17 17 18 18 18 18 18 17 17 17 17 17 18 17 17 17 16 16 16 16 15 15 15 14 14 14 14 13 13 13 13 12 12 12 12 12 12 12 11 10 10 9 9
18 18 18 18 18 18 18 17 17 17 17 17 17 16 16 16 16 15 15 15 15 14 14 14 13 13 12 12 12 12 12 12 11 11 11 11 11 10 10 9 9 9 8
19 19 18 18 18 18 18 17 17 17 16 16 15 15 15 15 15 15 14 14 14 14 13 13 12 12 12 11 11 11 11 11 10 10 10 10 10 9 9 8 9 8 8
19 19 18 19 18 18 17 17 16 16 15 15 15 15 15 15 15 14 14 14 13 13 13 12 12 11 11 10 10 10 10 10 9 9 9 9 9 8 8 8 8 8 8
18 19 19 18 18 18 16 16 16 16 15 15 15 15 15 15 14 14 14 13 13 12 12 11 10 10 10 9 9 9 9 9 8 8 8 8 8 8 7 7 7 7 7
18 18 18 18 18 17 17 17 17 16 15 15 15 14 14 14 14 14 14 13 13 12 11 10 10 10 9 9 8 7 4 7 8 8 7 7 7 7 7 6 6 6 6
17 17 17 17 17 17 18 16 16 16 15 14 14 14 14 13 13 13 12 12 11 11 10 9 9 9 8 8 7 8 4 3 4 7 6 6 7 6 6 5 5 5 5
17 18 17 18 17 17 17 16 16 15 13 14 14 14 13 13 13 12 12 11 11 10 9 9 8 8 8 7 7 6 6 6 2 2 5 6 5 5 6 5 5 4 4
16 16 17 16 16 16 16 16 16 15 14 14 13 13 13 12 11 11 11 10 9 8 8 8 8 7 7 6 6 6 6 6 5 3 1 3 4 5 4 4 4 4 4
16 17 17 17 16 16 16 16 16 16 14 13 13 13 12 11 10 10 10 9 8 8 7 7 7 7 6 6 5 5 5 5 4 4 0 1 2 4 4 4 4 3 3

GFSSE_925_temp_030.txt.gz
Temp
18 18 18 19 19 19 19 19 19 19 19 20 19 17 17 18 18 18 17 17 17 17 17 17 18 19 19 19 19 18 18 18 17 16 16 16 16 15 15 15 16 16 15
18 18 18 19 19 19 19 20 20 19 19 19 19 18 19 19 19 19 17 17 17 17 17 17 18 19 20 19 19 18 18 18 18 17 16 16 15 15 15 15 15 15 15
18 18 18 19 19 20 20 20 20 20 20 20 19 19 19 19 18 18 17 17 17 17 17 17 19 19 19 19 18 18 18 18 17 17 16 15 15 15 15 15 15 14 15
18 17 18 19 19 19 19 19 19 20 20 20 20 19 19 19 18 18 17 17 17 17 17 18 19 19 19 19 18 18 18 17 17 17 16 16 15 15 15 15 14 14 14
17 17 18 18 18 18 19 19 20 20 20 20 19 19 18 18 18 18 18 17 17 17 17 19 19 19 19 19 18 18 18 17 17 17 16 16 15 15 15 14 15 14 14
17 17 17 18 18 18 19 20 19 20 19 18 18 18 17 17 18 19 19 18 17 17 17 19 19 19 19 19 18 18 18 17 17 16 16 15 15 15 14 14 14 14 14
17 17 17 18 18 18 19 19 19 19 18 17 17 17 16 18 18 19 19 19 19 18 18 18 18 18 19 18 18 18 17 17 17 17 16 15 15 14 14 14 14 13 13
17 17 17 18 17 18 17 19 18 18 17 18 17 17 18 18 18 19 19 19 19 19 18 18 18 18 18 18 18 18 17 17 17 17 16 15 14 14 14 13 13 13 13
16 16 16 15 15 16 18 18 18 18 18 17 17 18 18 18 19 18 19 19 18 18 18 18 18 18 18 18 17 17 17 17 17 16 15 15 14 14 13 13 13 13 12
14 14 14 13 13 16 17 17 18 18 18 18 18 18 18 18 18 18 18 18 18 18 18 18 18 17 17 17 17 17 17 16 16 16 15 14 14 13 13 13 14 13 13
13 13 12 12 14 15 16 16 18 17 17 18 18 18 18 18 18 18 18 17 18 18 18 18 17 17 17 17 16 16 16 16 15 15 14 14 13 13 12 13 13 13 12
12 13 13 13 15 15 15 17 18 19 18 18 18 18 18 18 18 18 17 18 18 18 17 17 17 17 17 16 16 15 15 15 15 14 14 13 13 13 12 12 12 11 11
13 13 13 14 14 15 16 17 17 17 17 17 17 17 17 17 17 18 17 17 17 17 17 17 17 16 16 15 15 15 14 14 14 14 14 13 13 13 12 11 11 11 10
12 13 13 14 15 15 16 17 17 17 17 17 17 17 17 17 17 17 17 17 17 16 16 16 16 16 15 15 15 14 14 14 14 13 13 13 13 13 12 11 11 10 10
13 14 14 14 15 15 16 16 16 17 17 17 17 17 17 18 17 16 16 16 16 16 16 16 15 15 14 14 13 13 13 13 13 13 13 13 13 12 12 11 11 10 10
14 13 14 15 15 15 16 16 17 17 17 17 17 17 17 17 17 16 16 16 16 16 15 15 14 14 13 13 13 12 12 11 11 12 12 12 12 12 11 11 10 10 10
15 15 15 15 15 15 16 16 17 16 17 17 17 16 16 16 16 16 16 15 15 15 15 14 14 13 13 12 12 11 11 10 10 11 11 11 11 10 10 10 10 9 9
15 15 16 16 15 16 16 16 16 16 16 16 16 16 16 16 16 16 15 15 14 14 14 14 13 13 12 12 11 10 10 10 10 10 10 11 10 9 9 9 8 8 8
16 16 16 15 16 16 16 16 16 16 16 16 16 16 15 15 15 15 15 14 14 14 13 13 12 12 11 10 10 9 9 9 9 9 9 9 9 8 9 8 8 8 7
16 16 16 16 16 16 16 16 15 15 16 16 16 16 15 15 14 15 14 13 13 13 12 12 11 10 10 9 9 9 8 8 8 8 8 8 9 8 8 8 8 7 7
16 16 16 16 17 16 16 15 14 15 15 15 15 15 14 14 14 14 14 13 12 12 11 10 10 9 9 9 9 8 7 7 7 7 7 7 8 7 7 7 7 6 6
17 17 16 17 17 16 16 16 16 15 15 15 15 14 14 14 13 13 13 12 11 11 10 9 9 9 8 8 8 6 3 6 6 6 6 6 6 6 6 6 6 5 5
16 16 16 17 17 16 15 15 15 14 14 14 13 14 13 13 13 12 12 11 11 10 10 9 9 9 8 7 7 7 4 3 3 5 6 6 6 5 5 5 5 4 4
15 15 16 17 17 15 15 15 15 15 13 13 13 13 12 12 12 11 11 11 10 10 9 9 9 8 8 7 6 6 6 5 3 2 5 5 5 5 5 5 5 4 3
16 16 15 15 15 15 15 15 15 14 13 13 12 12 12 11 11 11 10 10 10 9 9 9 8 7 7 6 6 6 5 5 4 2 1 3 5 5 5 4 4 4 3
16 16 15 16 15 15 15 15 14 13 12 12 11 11 11 11 10 10 10 10 9 9 8 8 7 6 6 6 5 5 4 4 4 2 -0 1 1 4 4 4 3 3 2

GFSSE_925_temp_033.txt.gz
Temp
18 18 20 20 20 20 20 20 20 20 20 20 20 20 19 18 18 18 18 18 17 17 17 17 18 18 17 17 18 18 18 17 16 16 16 16 16 15 15 16 16 16 15
18 18 18 20 20 20 20 20 20 20 20 20 20 19 17 17 18 18 17 17 17 17 17 19 20 19 19 18 19 18 18 18 17 17 16 16 16 15 15 15 15 15 15
18 17 17 19 20 20 20 20 20 20 20 20 20 18 18 17 17 17 17 17 17 18 18 19 20 19 19 18 18 18 18 17 17 17 16 17 16 15 15 15 14 15 14
17 17 17 18 18 18 19 19 18 18 19 18 20 18 18 17 17 17 17 17 18 18 19 19 19 19 18 18 18 18 17 17 17 16 16 17 16 15 15 14 14 14 14
17 17 17 18 17 18 18 18 17 17 19 19 19 18 17 17 17 17 17 18 18 18 18 19 19 19 18 18 18 18 17 17 17 16 16 16 16 15 14 14 14 14 14
17 17 17 18 18 18 18 18 18 18 17 19 18 18 17 17 17 17 17 18 18 18 19 19 19 19 18 18 18 18 18 17 16 16 16 15 15 14 14 14 14 14 14
17 17 17 18 17 18 17 17 18 19 17 17 17 17 18 18 17 17 17 17 18 18 19 18 19 19 19 18 18 17 17 17 16 16 16 16 15 14 14 13 13 13 13
17 16 17 17 17 17 17 18 18 19 17 17 17 18 18 18 18 18 17 18 18 18 18 18 18 18 18 18 17 17 17 17 16 16 16 16 14 14 14 13 13 13 13
17 16 16 15 15 15 17 18 18 18 17 17 18 18 19 19 19 18 18 17 17 18 18 18 18 18 17 17 17 17 16 16 15 15 15 15 14 14 13 13 13 12 12
16 16 15 15 13 13 14 16 17 17 17 17 18 18 18 18 18 18 18 18 18 17 17 17 17 17 17 17 16 16 16 16 14 15 15 14 13 13 13 13 13 12 12
12 14 12 13 13 13 15 16 16 17 17 17 18 18 18 17 17 17 18 18 18 17 17 17 17 17 17 16 16 16 16 15 14 14 14 13 13 13 12 12 12 12 11
11 11 11 12 13 15 16 16 16 16 18 17 17 18 18 17 17 17 17 17 17 17 17 17 17 16 16 16 15 15 15 15 14 14 14 13 13 12 12 12 11 11 11
11 11 11 13 14 15 16 16 17 17 17 17 17 18 17 17 17 17 17 16 17 17 17 16 16 16 16 15 15 15 15 14 14 14 14 13 13 13 12 11 11 11 10
13 13 12 12 12 13 16 16 16 16 17 17 17 17 17 17 17 17 16 16 17 17 16 16 16 15 15 15 14 14 14 14 13 13 13 13 13 13 12 11 11 10 10
12 12 12 13 13 14 15 16 17 17 17 17 17 17 17 17 17 16 16 16 16 16 16 16 15 15 14 14 14 13 13 13 13 12 13 13 13 13 12 11 11 10 10
13 13 12 15 15 14 15 16 16 17 17 17 17 17 17 17 17 16 16 16 16 16 15 15 15 14 14 13 12 12 12 12 12 12 12 11 12 12 11 11 11 10 10
14 14 13 13 14 15 15 16 17 17 17 17 17 17 17 16 17 16 16 16 15 15 15 14 14 13 13 12 12 11 11 11 11 11 11 11 10 11 10 10 10 10 9
14 14 14 14 14 15 15 16 16 16 17 16 16 16 16 16 16 16 16 15 15 14 14 13 13 13 12 11 10 10 9 9 10 10 10 10 9 9 9 9 9 8 8
14 15 14 14 15 15 16 16 16 16 16 16 15 15 15 15 15 16 15 15 14 13 13 13 13 13 11 10 9 8 8 8 8 9 9 9 9 9 8 8 8 8 8
15 15 15 15 15 15 16 16 16 15 15 15 15 15 15 15 15 15 14 14 13 13 12 12 12 11 10 9 9 8 7 7 7 8 8 8 8 8 8 8 7 7 7
15 15 15 15 16 15 15 14 14 14 14 14 15 15 15 15 14 14 14 13 13 12 12 12 11 9 8 8 9 8 7 6 7 7 7 7 7 7 7 7 6 6 6
16 15 15 15 16 15 15 15 14 14 13 14 14 14 14 14 14 14 13 13 12 12 12 11 10 8 8 8 9 8 10 8 7 6 6 6 6 6 6 6 6 5 5
16 15 15 15 15 15 15 15 15 14 13 12 12 13 13 13 13 13 13 13 12 11 11 10 10 9 8 6 7 9 10 11 8 6 5 5 5 5 5 5 5 4 4
16 15 15 15 16 15 15 14 15 14 13 12 12 12 12 12 12 12 12 12 11 11 10 9 9 8 8 8 6 6 7 7 9 9 6 6 5 5 4 4 4 3 3
16 15 15 14 14 15 14 13 13 13 13 13 13 12 11 11 12 12 11 11 11 10 9 8 8 7 7 7 7 6 6 5 5 6 8 7 5 5 5 4 4 3 3
16 15 16 15 14 14 13 13 12 13 13 13 12 11 11 11 11 11 11 11 10 9 9 8 7 7 7 6 6 5 6 6 7 6 6 6 5 5 4 4 3 3 2

GFSSE_925_temp_036.txt.gz
Temp
22 20 18 18 18 18 18 19 19 20 20 19 19 19 19 18 18 18 18 18 18 18 17 17 17 17 17 17 17 17 17 16 16 16 16 16 16 15 16 17 18 17 16
21 20 17 18 18 18 18 19 19 19 19 19 19 18 18 18 18 18 18 18 18 17 17 17 17 17 17 17 17 17 17 17 17 17 18 16 16 15 15 15 16 16 16
21 20 18 17 17 18 19 19 19 19 19 19 19 18 18 18 18 18 18 18 18 17 17 17 17 16 17 18 18 18 17 17 17 18 19 19 17 15 15 15 15 15 14
20 20 19 19 18 19 19 19 19 19 19 17 18 18 18 18 18 18 18 18 17 17 17 17 17 18 18 18 18 18 18 17 18 19 19 19 17 15 15 14 14 15 15
19 19 19 18 19 19 19 19 18 17 17 17 17 17 18 18 18 18 18 18 18 17 17 17 18 18 18 18 18 18 17 17 18 19 19 18 17 15 14 15 15 14 14
19 20 18 18 19 19 19 18 17 17 16 17 16 18 17 18 18 18 18 18 18 18 18 18 18 18 18 18 18 17 17 18 19 19 19 17 16 14 14 14 14 14 14
18 18 17 18 18 18 17 17 17 17 18 17 16 17 17 17 18 17 18 18 18 19 19 19 18 18 18 18 17 17 17 18 19 19 18 17 15 14 14 14 13 13 13
18 17 17 17 17 16 16 16 17 17 18 17 17 17 17 17 17 18 18 18 18 19 19 18 18 18 17 17 17 17 17 17 19 18 18 17 14 14 14 13 13 13 13
17 16 16 16 16 16 16 16 17 17 17 17 17 17 17 18 18 18 18 18 18 18 18 18 18 17 17 17 17 17 17 17 18 18 18 17 14 14 14 13 13 12 12
16 16 15 15 15 15 16 16 16 17 17 17 18 17 17 17 17 18 18 18 18 18 18 18 17 17 17 17 17 16 16 17 18 18 17 15 14 13 13 13 12 12 12
14 14 14 15 14 14 14 15 16 17 16 17 18 17 18 18 18 18 17 17 17 17 17 17 17 17 17 16 16 16 16 17 18 17 17 14 13 13 13 12 12 12 11
12 12 12 11 13 13 14 15 15 15 16 16 16 17 18 17 18 18 16 17 17 17 17 17 17 17 17 17 16 16 16 16 17 17 15 14 13 13 12 12 11 11 11
11 11 11 12 12 13 13 14 15 15 16 15 16 16 16 16 17 17 16 16 16 16 16 16 16 17 16 16 16 15 15 16 16 16 14 13 13 13 12 12 11 11 11
11 10 11 11 11 11 13 14 16 16 16 17 18 17 16 16 17 17 17 16 16 16 16 16 15 14 14 14 14 14 14 15 15 15 14 13 13 13 12 11 11 11 10
11 11 11 12 13 13 15 15 16 17 17 17 17 17 18 17 17 17 16 17 17 16 16 16 15 15 14 14 14 14 14 13 14 14 14 13 13 13 12 12 11 10 10
12 12 12 12 15 16 15 15 16 16 16 16 17 17 16 17 16 16 16 16 16 16 16 16 15 15 15 14 13 13 13 13 13 13 14 13 12 12 12 12 11 10 10
14 13 12 13 15 15 16 16 16 16 16 17 17 15 16 16 15 16 16 16 16 15 15 14 14 14 14 14 13 13 13 12 13 12 13 13 13 11 11 11 10 10 10
15 15 15 15 15 15 15 16 16 16 16 17 16 16 15 16 15 15 16 15 15 15 15 15 15 15 14 14 13 13 12 12 11 11 12 12 12 12 10 10 9 9 8
17 16 16 16 16 16 16 16 15 16 16 17 15 15 14 15 15 16 16 14 14 14 14 14 14 14 14 14 13 12 12 12 11 11 11 11 10 11 11 9 9 8 8
17 17 16 16 16 15 16 15 16 16 16 15 15 15 15 15 15 15 14 13 14 14 14 14 14 13 13 13 13 12 11 11 11 11 10 10 10 10 10 9 9 9 7
17 17 17 17 16 16 16 17 17 16 16 16 15 15 15 15 14 14 14 13 14 14 14 13 13 13 12 12 13 13 11 10 10 10 10 10 9 9 9 9 9 9 8
18 17 17 17 17 16 18 17 18 17 16 16 16 14 14 14 14 14 14 14 14 13 12 12 12 13 12 11 13 13 15 13 10 9 10 9 8 8 9 8 7 7 7
19 18 18 18 18 17 18 18 17 16 14 14 14 14 14 13 14 13 13 14 13 13 13 12 12 12 13 11 10 13 15 16 13 11 9 9 8 8 8 8 7 6 6
20 19 19 19 19 18 17 18 17 17 16 14 14 15 13 12 13 13 13 12 12 13 12 12 11 11 11 12 10 10 10 11 14 13 10 9 8 8 8 7 7 6 6
21 20 19 19 19 18 17 17 16 17 17 15 14 14 12 11 11 12 11 11 11 12 11 11 10 9 10 9 11 11 10 10 9 10 12 12 10 9 8 7 7 6 6
21 20 19 19 19 18 16 14 14 15 16 14 14 13 12 11 11 10 10 11 11 11 10 9 8 8 8 10 10 10 10 11 11 10 11 10 10 9 8 7 6 6 6

GFSSE_925_temp_042.txt.gz
Temp
21 19 19 19 19 19 20 20 20 20 20 20 20 19 19 19 19 18 18 18 18 17 17 17 17 17 17 17 18 18 18 17 18 17 16 16 16 16 17 16 15 15 15
19 19 20 20 19 19 19 19 20 20 20 20 19 19 19 19 19 18 18 18 17 17 17 17 17 17 18 18 18 18 18 17 18 18 16 15 15 15 15 15 15 15 15
19 19 20 20 19 19 19 19 20 20 19 19 19 19 19 19 18 18 18 17 17 17 17 17 17 18 18 18 19 19 18 18 18 18 17 16 15 15 15 15 14 14 14
20 19 19 19 19 18 18 19 19 19 19 19 20 19 19 18 18 18 18 17 17 17 17 17 16 18 18 18 19 19 19 18 19 18 17 16 15 15 15 14 14 15 14
20 19 19 19 19 18 18 19 19 19 19 19 19 19 18 18 18 18 18 17 17 17 17 16 18 18 18 18 18 19 19 19 18 18 16 16 15 14 14 14 14 14 14
19 20 19 19 18 17 18 18 18 18 18 19 18 18 17 18 18 17 17 17 17 17 16 17 18 18 18 19 18 19 19 20 18 17 15 15 14 14 14 13 13 13 13
19 20 19 18 19 18 18 18 18 18 18 18 17 17 17 17 17 17 17 17 17 17 18 18 18 18 18 18 19 19 20 20 19 17 15 14 14 14 13 13 13 13 13
19 19 18 18 17 17 17 18 18 17 17 17 17 17 17 18 18 18 18 17 17 18 18 18 18 18 18 18 19 19 19 20 18 17 15 14 14 14 13 13 13 13 12
17 17 16 17 16 16 17 17 17 17 17 17 17 17 18 18 18 18 18 18 18 18 18 18 18 18 18 18 18 19 19 19 19 17 15 14 14 13 13 13 12 12 12
16 15 16 15 16 16 16 16 16 17 17 17 17 17 17 18 18 18 18 18 18 18 18 18 17 17 17 17 18 18 18 19 19 17 15 14 13 13 13 13 12 12 12
15 15 15 15 14 15 15 16 16 17 17 17 17 17 18 18 18 17 18 18 18 18 18 17 18 18 18 18 18 18 18 18 18 16 15 14 13 13 13 12 12 12 11
14 14 15 15 14 15 15 16 17 17 17 17 17 18 18 18 17 17 17 18 18 17 17 17 18 17 17 17 17 17 17 18 17 16 15 14 13 13 12 12 12 11 11
13 14 14 15 14 15 15 16 16 16 16 18 17 17 18 18 18 17 17 17 17 17 17 17 17 17 17 17 17 17 17 17 17 16 15 14 13 13 12 12 11 11 11
12 12 12 13 14 15 15 16 16 17 17 16 17 17 18 18 18 18 17 17 17 17 17 17 17 16 16 16 16 16 16 16 17 15 15 15 14 13 12 12 11 11 11
11 11 11 11 13 14 15 15 15 16 16 16 17 18 18 18 18 18 17 17 17 17 17 17 17 16 16 16 15 16 16 16 16 15 15 14 14 13 12 12 11 11 11
10 10 11 11 12 12 13 14 14 14 15 16 17 18 18 18 18 18 18 18 18 18 18 17 17 17 17 16 16 15 15 15 15 15 14 14 14 13 13 12 11 11 11
10 10 10 10 11 12 12 12 13 14 15 16 16 17 17 18 18 18 18 18 18 18 18 17 17 17 17 16 16 15 15 15 15 14 14 14 13 13 13 12 11 11 10
10 10 10 11 11 11 12 14 14 13 15 16 17 17 18 18 18 18 18 18 18 18 17 17 17 17 17 17 16 16 15 15 14 13 14 13 12 12 12 12 11 10 10
12 11 11 10 11 12 12 13 14 15 17 17 18 18 18 18 17 17 18 18 17 17 17 17 17 17 17 16 16 15 15 14 14 14 13 13 13 12 11 11 11 10 10
13 13 12 11 12 13 14 15 15 17 17 18 19 18 17 17 17 17 17 18 17 17 17 17 17 16 16 16 16 16 15 14 14 13 13 13 12 12 11 10 10 10 10
15 14 14 12 13 13 14 16 17 17 18 18 18 17 17 17 17 17 17 17 16 17 16 16 16 16 15 15 15 15 15 14 13 13 13 12 12 11 11 11 10 10 9
16 15 15 15 15 16 16 17 17 18 18 18 17 17 17 17 17 17 17 16 16 16 16 16 15 15 15 15 14 14 12 12 12 12 13 12 12 11 11 11 10 10 9
17 16 16 16 16 16 17 17 19 19 18 18 18 18 17 17 17 17 16 16 16 16 16 15 15 15 15 15 14 13 12 12 13 12 12 12 12 11 10 10 10 9 9
18 17 17 17 18 18 18 18 19 19 19 19 19 18 18 17 17 16 16 16 16 15 15 15 14 14 14 14 14 13 13 13 10 10 12 12 11 11 10 10 9 9 9
20 19 18 19 19 18 18 18 19 20 19 19 19 19 18 17 16 16 16 15 15 15 15 15 14 14 13 13 13 13 13 13 12 10 8 11 11 11 10 10 9 9 8
20 20 19 19 20 19 18 19 19 20 20 19 18 17 17 16 15 15 15 14 14 14 14 14 14 13 12 12 12 12 12 12 12 11 9 11 11 12 11 10 9 9 8

GFSSE_925_temp_045.txt.gz
Temp
18 19 19 19 20 21 21 21 21 20 20 20 20 20 20 19 19 18 18 18 17 17 17 17 17 17 17 16 16 17 17 18 18 16 15 16 15 15 15 15 15 15 15
19 18 19 19 19 20 20 20 20 20 20 20 20 19 19 19 18 18 18 18 17 17 17 17 17 17 17 17 17 17 16 16 16 16 15 15 15 15 15 14 14 15 15
21 18 18 18 18 19 19 19 20 19 19 19 19 19 18 18 18 18 17 17 17 17 17 17 18 18 18 17 17 17 17 17 16 16 15 15 15 15 15 14 14 15 15
19 20 19 18 18 19 19 19 19 19 19 19 19 19 18 18 18 17 17 17 17 17 17 17 19 18 18 18 18 18 16 17 16 16 15 15 15 15 15 14 14 14 14
19 18 18 19 18 19 19 19 18 19 19 18 19 18 18 18 18 18 17 17 17 17 17 18 19 19 19 19 19 18 17 17 18 16 14 14 14 14 14 13 13 14 13
19 20 19 19 19 18 18 18 18 19 18 18 18 18 18 18 18 17 17 17 17 17 17 18 19 18 18 19 18 18 18 18 17 16 14 14 14 14 13 13 13 13 13
19 20 20 18 18 19 18 18 18 18 18 18 18 18 18 18 18 17 17 17 17 18 18 18 18 19 19 19 19 18 17 16 17 16 14 14 14 14 13 13 13 13 12
20 19 19 17 17 18 17 16 17 18 18 18 17 17 17 17 17 17 17 17 18 18 18 18 18 18 19 19 19 18 16 16 16 16 15 14 13 13 13 13 12 12 12
17 17 17 17 17 17 16 15 17 17 17 17 17 17 17 17 17 17 17 18 18 18 18 18 18 18 18 18 19 19 17 16 15 15 14 14 13 13 13 12 12 12 12
16 17 17 16 16 16 15 15 17 17 17 17 17 17 17 17 18 18 18 18 18 18 18 18 18 18 18 18 18 18 17 16 15 15 14 13 13 13 13 12 12 12 11
15 16 17 17 15 14 14 16 17 17 17 17 17 17 17 17 17 18 18 18 18 18 18 18 18 18 18 18 18 18 17 17 16 15 15 13 13 13 12 12 12 12 11
14 15 14 15 14 14 14 15 16 17 17 17 17 17 17 17 18 18 18 18 18 17 18 17 17 17 17 17 17 17 17 16 16 16 15 14 13 13 12 12 12 11 11
14 14 14 14 14 14 15 16 17 17 17 17 17 17 17 17 18 18 18 18 18 17 17 17 17 16 16 16 17 17 16 15 16 15 15 14 13 13 12 12 11 11 11
13 13 14 14 13 14 15 16 16 17 17 17 17 17 17 18 18 18 18 18 18 17 17 17 16 16 16 17 16 16 16 15 15 15 14 14 13 13 12 12 11 11 11
12 13 13 13 14 14 15 16 16 16 17 17 17 18 18 18 19 18 17 17 17 17 17 16 16 16 16 16 16 16 16 16 15 14 14 14 14 13 12 12 11 11 10
11 11 12 13 14 15 16 16 16 16 16 17 17 18 18 18 18 17 18 18 17 17 17 17 17 17 16 16 16 16 16 15 15 14 14 14 14 13 12 12 12 11 11
10 10 10 11 12 14 14 15 15 14 14 16 17 17 18 18 17 18 18 18 17 17 17 17 17 16 16 16 16 16 15 15 15 14 14 13 13 13 13 12 11 11 10
10 11 10 12 13 13 13 13 14 13 14 14 16 18 18 17 17 18 18 18 18 18 17 17 17 17 17 16 16 15 15 15 15 14 13 13 12 13 13 12 11 10 10
10 10 10 11 12 12 13 14 13 13 14 14 17 18 17 17 18 18 18 18 18 18 17 17 17 17 16 16 16 15 15 15 14 14 13 12 12 12 12 11 11 11 10
11 11 11 12 12 12 12 13 13 13 14 16 17 18 17 17 18 18 17 17 17 17 17 17 17 16 16 16 16 16 15 15 14 14 13 13 12 11 11 11 11 10 10
11 11 10 10 12 13 12 12 12 13 15 16 17 17 17 17 17 17 17 17 17 17 17 17 16 16 16 16 16 15 15 14 14 13 13 13 12 12 11 11 10 10 10
12 12 11 11 11 12 12 13 13 15 15 16 17 17 18 18 17 17 17 17 17 17 16 16 16 16 16 15 15 13 10 12 13 13 13 12 12 12 11 11 10 10 9
13 13 11 11 12 13 13 14 14 16 17 17 17 18 18 17 17 17 17 16 16 16 16 16 16 16 15 15 14 14 10 9 11 13 12 12 12 12 11 11 11 10 9
14 14 13 13 13 14 14 15 16 16 16 17 17 18 18 17 17 17 16 16 15 15 16 16 16 15 14 14 13 14 13 13 9 9 12 12 12 12 11 11 10 10 9
15 14 14 15 15 15 15 15 16 17 18 19 18 18 18 17 17 16 16 16 16 15 16 15 15 14 13 14 13 13 13 12 12 10 7 11 11 11 11 11 10 10 9
16 15 15 15 16 16 17 17 17 17 18 19 19 18 18 18 17 16 15 16 16 15 15 15 14 14 14 13 13 12 12 12 11 10 7 9 9 11 11 10 10 10 9

GFSSE_925_temp_048.txt.gz
Temp
18 19 20 20 19 20 21 22 20 21 21 20 19 19 18 18 18 18 18 18 17 17 17 17 17 17 16 16 16 16 16 16 15 15 15 15 15 15 15 15 15 15 15
18 18 19 20 20 20 20 20 20 20 20 20 19 18 17 18 19 19 18 17 17 17 17 17 16 16 16 15 15 16 16 16 15 15 15 15 15 15 15 14 15 15 15
18 19 20 20 18 19 19 20 19 20 19 19 19 18 18 18 19 18 18 18 17 17 17 17 16 16 16 16 16 16 16 16 15 15 15 15 15 15 15 14 14 14 15
19 18 18 18 17 18 19 19 18 18 18 18 18 17 17 18 18 18 18 18 18 17 17 16 16 16 17 16 16 16 16 16 16 15 15 14 15 15 15 14 14 14 14
17 18 19 20 19 17 18 18 18 18 18 18 18 17 17 18 18 18 18 18 18 17 17 16 17 18 18 17 17 16 16 16 16 15 14 14 14 14 14 13 13 13 13
16 18 18 19 17 17 17 18 18 17 17 17 17 17 17 18 18 18 18 18 18 17 18 18 18 18 17 18 17 17 17 17 16 15 14 14 13 14 14 13 13 13 12
18 16 19 16 18 16 16 18 18 17 17 17 17 17 17 18 18 18 18 18 18 19 19 18 19 18 17 17 17 17 17 16 16 15 14 13 13 13 13 13 13 12 12
18 17 17 16 16 16 16 17 17 17 17 17 17 17 17 17 17 17 18 18 18 18 18 18 18 18 17 16 17 16 16 16 16 15 14 13 13 13 13 12 12 12 12
18 18 18 16 17 16 15 16 16 17 17 17 17 17 17 17 17 18 18 18 18 18 18 18 18 18 17 17 17 17 16 16 16 15 14 13 13 13 13 12 12 12 11
17 17 16 16 15 15 14 13 16 17 17 17 17 17 17 17 17 18 18 18 18 18 18 18 18 18 18 17 17 16 16 16 15 15 14 13 13 13 13 12 12 11 11
16 15 16 16 16 15 14 13 14 17 17 17 17 17 17 17 17 18 18 18 18 18 18 18 18 18 18 17 16 16 16 16 15 14 14 13 13 13 12 12 12 11 11
15 15 16 15 15 14 13 13 15 16 17 17 17 17 17 17 17 18 18 18 17 18 17 18 17 17 17 17 17 16 16 15 15 14 14 13 13 13 12 12 12 11 11
14 14 14 15 15 15 14 14 15 16 16 17 17 18 17 18 17 18 17 18 18 18 17 17 17 17 17 17 16 16 16 15 15 15 14 13 13 13 12 12 11 11 10
14 14 14 14 14 13 14 14 15 16 16 17 17 18 18 18 18 18 18 18 18 17 17 17 16 16 16 16 16 16 15 15 15 15 14 13 13 13 12 12 11 11 10
13 14 14 14 13 13 13 15 16 16 17 17 17 18 18 18 18 18 18 18 17 17 17 17 16 16 16 16 16 16 15 15 15 15 14 13 13 12 12 12 11 11 10
11 12 13 13 13 14 15 16 16 17 17 17 17 18 18 18 18 18 18 17 17 17 17 17 16 16 16 16 16 16 15 15 15 14 14 13 13 13 12 12 12 11 10
12 11 13 13 13 15 15 16 16 16 17 17 18 18 18 18 18 18 18 17 17 17 17 16 16 16 16 16 16 15 15 15 15 14 14 13 14 14 13 12 11 11 11
11 11 11 12 14 14 15 15 15 16 16 16 17 17 17 17 17 17 17 17 17 17 17 16 17 16 16 16 16 15 15 15 15 14 14 14 13 13 13 12 12 11 10
11 11 11 11 11 13 13 14 14 15 16 16 16 17 17 17 17 17 18 18 17 17 17 17 17 16 16 16 16 16 15 15 14 14 14 14 13 13 12 12 11 11 11
10 11 11 12 13 14 14 13 13 14 16 15 17 18 18 18 17 17 17 17 17 17 17 17 17 16 16 16 16 15 15 15 14 14 13 13 12 12 12 12 11 11 10
10 10 10 11 12 13 13 13 14 14 14 15 16 17 18 18 17 17 17 17 17 17 17 17 17 16 16 16 15 14 14 14 14 14 14 13 12 12 12 11 11 11 10
10 11 10 10 12 12 12 13 13 14 15 14 16 17 17 17 17 17 17 17 17 17 17 17 16 16 16 16 15 13 10 12 13 13 13 13 13 12 11 11 11 10 10
10 10 11 10 11 12 14 13 13 13 13 13 14 15 16 17 17 17 17 17 17 17 16 16 16 16 16 15 15 15 9 10 10 12 13 13 12 12 12 11 11 10 10
11 11 10 11 11 12 12 12 12 12 12 14 14 15 17 17 17 17 17 17 17 16 16 16 16 16 16 15 14 14 13 13 10 9 12 12 12 12 12 11 11 10 10
12 11 11 11 12 12 12 12 12 13 13 15 15 16 17 17 17 17 17 17 16 16 15 15 16 15 15 15 14 13 12 12 12 10 8 10 11 11 12 11 11 11 10
13 12 12 11 11 12 12 12 13 13 14 15 16 16 17 17 18 17 17 16 17 15 15 15 15 15 15 14 13 13 12 11 10 10 8 9 10 11 11 11 11 10 10

GFSSE_925_temp_054.txt.gz
Temp
18 19 20 20 20 21 22 22 22 21 20 19 19 19 18 18 17 18 18 18 17 17 17 17 17 16 16 16 15 15 15 16 16 16 16 16 16 15 15 15 15 15 15
18 18 18 18 20 21 21 22 22 20 19 18 18 17 17 17 17 17 17 17 17 17 17 16 16 16 15 15 15 15 15 15 15 15 15 15 15 15 15 15 15 15 14
18 18 18 20 20 20 21 21 19 20 19 18 17 17 17 17 17 17 16 16 17 17 17 16 16 15 15 15 15 15 15 15 15 15 15 15 15 15 14 14 15 15 15
18 18 19 19 19 20 20 20 18 17 18 19 18 17 17 16 16 16 16 17 17 17 17 16 16 15 15 15 15 15 15 15 14 14 14 15 15 14 14 14 14 14 14
18 18 19 19 19 19 19 20 19 20 19 18 17 17 16 16 16 16 16 16 17 16 16 16 15 15 16 15 15 15 15 14 14 14 14 14 14 14 13 13 13 13 13
18 17 18 19 19 18 17 17 17 18 17 17 17 17 16 16 16 16 16 16 16 16 16 15 15 16 16 16 15 15 15 14 14 14 14 14 14 13 13 13 13 12 12
17 17 18 18 18 17 17 17 17 18 17 18 17 17 16 16 16 16 16 16 16 16 16 15 16 16 16 16 16 15 15 14 14 13 13 13 13 13 13 12 12 12 12
17 16 18 17 18 18 18 17 18 17 17 17 18 17 16 16 16 16 16 16 17 17 17 17 16 17 17 17 16 16 15 14 13 13 13 13 13 13 12 12 12 12 11
17 16 17 18 17 17 16 17 17 17 17 17 17 16 16 16 16 16 16 17 17 17 17 17 17 17 17 16 16 16 15 14 13 13 13 13 13 13 12 12 12 11 11
17 16 16 15 15 15 15 15 16 17 17 17 17 16 16 16 16 16 17 17 17 17 17 17 17 16 16 16 16 15 15 14 13 13 13 13 13 13 12 12 11 11 11
15 15 15 14 15 14 15 14 13 15 18 16 17 17 16 16 17 17 17 17 17 17 17 17 17 17 16 16 16 15 15 14 13 13 13 13 13 13 12 11 11 11 10
15 14 15 15 15 14 13 12 13 15 17 17 17 16 17 17 17 17 17 17 17 17 17 17 17 17 16 16 15 15 15 14 13 13 13 13 13 13 12 11 11 11 11
15 13 13 13 14 13 12 14 15 16 16 17 18 17 17 17 17 17 16 16 17 17 17 17 16 16 16 16 15 15 14 14 13 13 13 13 13 12 12 11 11 11 10
14 14 13 13 12 12 12 13 15 15 15 16 18 17 17 17 17 17 17 16 16 16 16 17 17 16 16 15 15 15 14 14 13 13 13 12 13 12 12 12 11 11 10
14 13 13 12 12 13 12 13 14 14 14 16 18 17 17 17 17 17 17 17 17 17 17 17 17 17 16 15 15 15 15 14 14 13 13 13 12 12 12 12 11 11 10
14 13 13 13 12 11 12 13 14 14 14 15 16 17 17 17 17 17 17 17 17 17 17 17 17 16 16 16 15 15 15 15 14 14 13 13 13 12 12 12 12 11 11
13 13 13 12 12 12 12 12 13 14 14 15 16 16 18 17 17 17 17 17 17 17 16 16 16 16 16 15 15 15 15 14 14 14 14 14 13 12 12 12 12 11 11
12 13 13 13 12 11 12 12 13 12 13 13 14 15 17 17 17 17 17 17 17 17 16 16 16 16 15 16 16 15 15 15 14 14 14 14 14 13 12 12 12 12 11
12 12 13 13 12 12 12 12 13 13 13 13 14 16 17 17 17 17 17 17 17 17 16 16 16 16 16 15 15 15 15 15 15 14 14 14 14 13 13 13 12 12 11
11 11 12 12 12 12 12 12 13 14 13 14 16 16 17 17 17 17 17 17 17 17 16 16 16 16 16 15 15 15 14 14 14 14 14 14 14 13 13 13 13 12 11
11 11 11 11 12 12 12 13 13 13 14 15 15 16 16 17 17 17 16 17 16 16 16 16 15 15 15 15 14 13 13 14 14 14 14 14 13 13 13 13 13 12 12
10 11 11 11 11 12 13 12 13 12 14 15 14 16 16 16 16 16 16 17 16 15 16 16 16 15 15 15 14 12 10 12 13 14 13 13 13 12 12 12 12 12 12
11 11 11 11 11 11 12 12 12 13 14 14 13 14 15 16 16 17 16 17 15 16 16 16 16 16 15 14 15 15 9 10 10 12 13 13 13 12 12 12 12 12 12
11 10 10 11 11 12 12 13 13 11 13 13 13 14 15 16 16 16 16 15 16 16 16 16 16 16 15 15 13 14 14 13 10 11 12 12 12 12 13 13 12 12 12
10 10 10 11 11 11 12 13 13 12 12 13 14 15 16 15 16 16 16 16 16 16 16 16 16 15 15 14 14 13 12 12 12 11 10 11 11 12 12 12 12 12 11
10 10 11 11 11 11 12 13 13 13 13 13 13 14 16 17 17 17 16 16 16 16 16 16 15 15 15 14 13 13 14 12 11 10 9 10 11 12 12 12 12 11 11

GFSSE_925_temp_060.txt.gz
Temp
22 22 20 22 21 20 20 19 20 20 20 19 19 19 19 19 18 18 18 18 18 18 18 17 17 17 17 16 16 16 17 17 17 17 17 16 16 16 16 17 17 16 16
22 22 19 18 19 21 22 23 21 20 19 19 19 18 18 18 18 18 18 18 18 18 17 17 17 16 16 16 16 16 16 16 16 16 16 16 15 15 15 16 16 15 15
20 21 19 18 18 19 19 21 20 20 19 19 18 18 18 18 18 18 18 18 18 17 17 17 16 16 15 15 16 16 16 16 16 17 17 17 15 15 15 15 15 14 14
20 21 20 18 18 19 20 19 20 19 19 18 18 18 18 18 18 17 17 17 17 17 17 17 16 16 15 15 16 16 16 16 17 18 19 18 16 15 14 14 14 14 14
19 21 20 19 19 18 18 19 19 18 18 18 17 18 17 17 17 17 17 17 17 17 16 16 16 15 15 15 16 15 16 16 17 19 18 17 16 14 14 14 14 13 14
18 21 20 19 19 18 18 18 18 18 18 18 17 17 17 17 17 17 17 17 16 16 16 16 15 14 15 15 15 15 16 17 18 17 17 16 15 14 13 13 13 13 13
18 19 19 19 19 19 18 18 18 18 17 17 17 17 17 17 17 17 17 17 16 16 15 15 14 15 15 15 15 15 16 17 18 18 17 16 14 14 13 13 13 12 12
17 18 18 18 19 19 18 18 18 17 17 17 17 17 17 17 17 17 17 17 16 16 15 14 14 15 15 15 15 15 16 17 18 18 17 15 13 13 13 13 12 12 12
16 16 17 17 16 17 18 18 19 17 17 17 17 17 17 17 17 17 17 16 17 16 16 16 15 15 15 14 14 15 15 17 18 17 17 15 13 13 13 12 12 12 11
16 16 17 16 17 16 15 17 18 18 17 17 17 17 16 17 17 17 17 16 16 17 16 15 15 15 15 15 14 14 15 16 17 17 17 14 13 13 12 12 12 11 11
16 16 16 15 15 15 15 16 17 17 16 17 17 16 16 16 16 17 17 16 16 17 16 16 16 15 15 14 14 15 16 17 17 17 16 13 13 13 12 12 11 11 11
15 15 16 17 17 15 15 15 15 15 15 16 16 16 17 16 16 17 16 16 16 16 16 15 15 15 15 15 14 15 17 17 17 17 15 13 13 13 12 12 11 11 11
15 14 14 15 15 14 15 15 15 14 15 15 16 16 17 16 17 16 15 15 15 15 15 15 14 16 17 17 16 17 16 17 17 16 14 13 13 13 12 12 11 11 10
14 14 14 14 14 14 14 14 14 14 13 13 14 16 15 15 16 17 16 17 16 16 16 16 16 17 17 17 16 16 16 17 17 16 14 13 13 12 12 12 11 11 10
14 14 13 13 13 13 14 14 13 13 14 13 14 16 15 15 16 17 17 17 17 18 17 17 17 16 16 16 16 16 16 16 16 16 15 13 13 12 12 12 12 11 11
14 14 13 13 13 13 13 12 12 13 13 13 14 15 15 15 16 17 17 17 17 17 17 17 17 16 17 17 16 16 16 16 16 16 16 13 13 13 12 12 12 11 11
14 14 13 13 13 13 13 12 12 13 12 13 13 15 15 15 15 16 17 17 17 18 17 17 17 17 17 17 16 16 16 15 15 15 16 15 13 12 13 12 12 12 11
14 14 13 12 12 13 13 12 12 12 13 13 13 14 14 15 15 16 16 17 17 17 17 17 17 17 17 17 17 16 16 16 15 15 15 15 15 15 13 12 12 12 11
13 13 13 13 12 11 12 12 12 13 13 13 14 16 15 15 16 15 16 16 16 17 17 17 17 17 17 17 17 17 16 16 15 15 15 14 14 15 15 13 12 12 12
15 13 13 13 12 12 12 12 12 13 13 13 13 14 16 16 15 15 16 15 16 17 17 17 16 16 17 17 17 16 16 15 15 15 14 14 14 14 14 15 13 13 12
14 14 12 12 12 12 11 12 12 12 12 13 14 14 14 16 15 15 16 16 16 17 17 16 15 15 16 16 16 15 15 14 14 15 14 15 15 14 14 14 14 15 13
16 14 12 12 12 12 12 12 12 13 12 13 14 13 14 15 15 14 15 16 16 17 16 15 15 16 16 15 17 18 18 16 15 15 15 15 15 15 14 13 13 14 14
15 13 14 13 12 12 12 12 12 12 12 12 13 14 14 15 15 15 15 16 15 15 15 15 15 15 16 15 16 18 19 19 19 17 15 15 14 14 14 13 13 13 13
16 15 15 14 13 12 12 12 12 12 12 13 13 13 15 14 15 15 15 15 15 15 15 15 14 14 15 16 14 15 16 16 19 18 16 14 14 12 13 13 13 13 13
16 15 14 14 13 12 12 12 12 12 13 13 13 13 14 13 14 14 15 14 14 14 14 14 14 13 14 15 16 16 15 15 14 14 14 14 13 12 12 13 13 14 13
17 16 14 14 13 12 12 12 12 12 12 13 12 12 12 13 13 14 15 15 15 15 16 17 15 13 14 14 15 15 16 16 15 14 11 11 11 13 13 13 14 13 12

GFSSE_925_temp_066.txt.gz
Temp
22 23 23 22 20 19 19 20 20 20 20 20 20 20 20 20 20 20 20 20 19 18 18 18 18 17 17 17 17 18 18 18 17 17 17 17 17 16 16 16 16 16 16
22 21 22 22 21 19 19 19 20 20 20 20 19 18 19 19 19 19 19 18 18 18 17 17 17 17 17 17 18 18 18 17 17 17 17 16 16 16 15 16 16 16 16
24 22 22 21 20 19 19 19 19 19 19 19 20 19 19 19 19 18 18 18 18 18 17 17 17 17 16 18 18 17 17 17 17 17 16 16 15 15 15 15 15 15 15
24 22 20 20 20 19 19 19 19 18 18 19 19 19 19 19 18 18 18 18 18 17 17 17 16 16 16 17 18 18 18 19 18 17 16 16 16 15 15 15 15 14 14
23 23 22 21 20 19 19 19 19 19 18 19 19 19 19 18 18 18 18 17 17 17 17 17 16 16 17 18 18 19 19 18 18 18 16 15 15 15 15 14 14 14 14
22 23 21 21 21 19 19 19 19 19 18 18 19 19 18 18 18 18 18 17 17 17 17 16 15 17 17 18 19 18 18 18 18 17 16 15 14 14 14 13 13 13 13
22 22 21 21 21 20 19 19 19 20 18 19 18 18 18 18 18 18 17 17 17 17 16 15 15 16 17 18 18 19 19 19 18 16 15 14 14 14 14 13 13 13 12
21 20 19 20 20 20 20 19 17 17 18 19 18 18 17 18 18 17 17 17 16 16 16 15 16 16 17 18 19 19 19 19 17 16 14 14 14 14 13 13 12 12 12
20 19 18 19 19 18 19 18 17 17 16 18 18 18 17 17 17 17 17 16 16 16 15 15 16 16 17 18 18 19 19 18 17 15 14 13 13 13 13 12 12 12 12
19 19 18 17 18 17 18 18 18 17 16 16 17 18 18 17 17 17 17 16 16 15 15 15 16 16 17 17 18 18 19 18 17 16 14 13 13 13 13 12 12 12 11
19 18 17 17 17 17 17 18 17 17 17 15 18 17 17 17 17 16 16 16 15 15 15 15 16 16 17 18 18 19 19 18 17 15 14 13 13 13 12 12 12 11 11
19 18 17 16 16 16 17 16 14 14 15 14 17 17 16 16 16 16 16 16 15 15 15 16 16 16 17 18 18 18 19 18 16 15 13 13 13 13 12 12 12 11 11
19 17 17 16 16 16 15 15 15 15 15 15 16 17 17 16 16 15 15 16 15 16 16 16 16 16 16 17 18 18 19 17 16 14 13 13 13 13 12 12 11 11 11
18 16 16 16 16 16 15 15 15 15 15 15 15 17 17 16 16 15 14 15 15 15 15 16 16 16 16 17 17 18 19 17 16 14 13 13 13 13 12 12 11 11 11
18 16 16 16 16 15 14 14 14 15 15 15 15 17 17 16 15 15 15 15 15 15 15 17 16 17 17 17 18 18 18 17 16 14 13 13 13 13 12 12 11 11 11
18 16 15 16 16 15 15 14 14 15 15 15 15 15 17 16 16 15 16 15 16 16 16 17 17 18 18 18 17 18 18 17 16 15 13 13 13 13 13 12 12 11 11
18 17 15 15 15 14 14 14 14 14 15 14 14 15 16 16 16 16 16 16 16 17 17 17 18 18 18 18 17 18 18 18 17 15 14 13 13 13 13 12 12 12 11
18 16 15 14 14 13 13 13 14 14 14 15 14 14 15 15 16 16 16 16 17 17 17 18 18 18 18 18 18 18 17 18 17 16 15 14 13 13 12 12 12 12 11
19 16 14 14 14 13 14 13 13 13 13 13 13 14 14 15 16 16 16 17 18 18 18 18 18 18 19 18 18 18 18 17 17 17 16 15 15 14 13 12 12 12 12
19 16 14 14 14 13 13 13 13 13 13 12 12 13 14 14 16 15 16 15 18 16 19 18 19 19 19 19 18 18 18 18 17 17 17 16 15 15 15 14 13 12 12
18 17 14 14 13 13 13 13 12 12 12 12 12 13 13 15 17 16 17 18 18 18 18 18 18 19 19 19 19 18 18 18 17 17 17 16 16 16 15 15 15 14 13
18 16 14 13 13 13 13 12 12 12 12 12 12 12 13 14 15 16 16 17 17 17 17 18 18 18 18 18 18 18 14 17 17 17 17 16 16 16 15 15 14 14 14
19 16 14 13 13 13 13 13 12 12 11 11 12 13 14 14 15 15 16 17 17 17 17 17 18 18 18 18 18 18 15 14 16 16 17 16 16 16 16 15 15 15 14
20 16 15 13 12 12 13 12 12 12 12 12 12 12 14 15 15 15 16 16 17 17 17 17 17 17 17 17 18 17 17 17 15 14 15 16 16 16 16 16 15 15 15
21 18 15 13 12 12 12 12 12 13 12 12 12 12 13 14 15 16 16 16 16 17 16 17 16 17 17 17 17 17 16 16 16 15 13 15 16 16 16 16 16 15 15
21 18 17 14 13 13 12 12 13 14 13 13 13 12 12 13 14 15 15 16 16 16 16 16 15 16 16 16 16 16 16 17 16 16 13 15 14 15 15 15 15 15 15

GFSSE_925_temp_072.txt.gz
Temp
20 21 20 21 22 23 23 23 22 21 21 21 21 21 21 20 20 20 20 20 19 18 18 18 19 18 18 18 18 18 18 18 18 17 17 17 17 17 16 17 17 17 17
22 21 20 20 22 22 23 23 22 21 21 21 21 20 20 20 20 19 19 19 18 18 18 18 18 18 17 17 18 17 17 17 17 17 17 17 16 16 16 16 16 16 16
23 22 20 20 21 22 22 22 22 21 21 21 20 20 19 19 19 19 19 18 18 18 18 18 18 18 17 17 17 17 17 17 17 17 17 16 16 16 16 17 17 17 16
23 22 21 21 20 21 21 21 21 20 20 20 20 20 19 19 19 19 18 18 18 18 18 18 18 17 16 17 17 17 17 17 17 16 16 16 16 16 17 16 15 16 16
22 21 21 21 20 20 20 20 20 20 20 20 20 19 20 19 19 18 18 18 18 18 18 17 17 16 17 17 17 17 17 17 17 17 17 16 16 15 15 14 14 14 14
22 21 21 21 20 20 20 19 19 20 20 20 20 20 19 19 19 18 18 18 18 18 18 17 16 17 17 17 16 16 16 16 17 17 16 15 15 14 14 14 14 14 14
22 21 21 21 21 21 20 19 19 19 19 19 19 19 19 18 18 18 18 17 17 17 17 17 17 17 16 16 16 16 16 16 16 16 16 15 15 14 14 13 13 13 13
22 21 20 20 20 20 20 20 19 19 19 19 18 18 18 18 18 18 17 17 17 18 17 17 17 17 17 16 16 16 16 16 15 15 14 14 14 14 14 13 13 13 13
21 20 19 19 19 19 19 19 19 19 17 17 16 17 16 17 17 17 17 17 17 18 17 16 17 17 17 17 16 16 16 15 15 14 14 14 14 14 13 13 13 12 12
20 20 19 19 18 18 19 19 19 17 17 16 16 16 15 17 16 17 17 17 17 17 17 16 17 17 17 16 16 16 15 15 14 13 14 14 13 13 13 13 12 12 12
19 19 19 18 18 18 18 17 17 16 18 17 16 17 16 15 16 17 17 17 17 17 17 17 17 17 17 17 16 16 15 14 14 13 13 13 13 13 13 12 12 12 12
18 18 18 17 17 17 17 16 16 16 16 16 16 16 17 16 15 17 17 17 17 16 17 17 17 17 16 16 15 16 16 14 14 13 13 13 13 13 13 12 12 12 11
18 18 18 17 17 16 16 15 16 16 16 17 17 16 16 16 15 16 16 16 16 16 16 17 17 17 16 15 15 16 15 14 14 13 13 13 13 13 12 12 12 11 11
18 17 17 16 16 15 15 15 16 16 16 15 16 17 15 15 15 15 14 15 15 16 16 16 17 17 17 16 16 16 15 14 14 13 13 13 13 13 12 12 12 11 11
18 17 16 16 16 15 15 15 15 15 15 14 15 15 15 14 15 14 14 15 15 16 16 16 17 17 17 15 16 16 15 15 14 13 13 13 13 12 12 12 12 11 11
17 17 16 16 16 15 16 15 14 14 14 14 14 15 14 15 14 14 14 14 15 16 16 17 17 17 17 16 16 16 15 15 14 13 13 13 13 12 12 12 12 11 11
17 16 16 16 15 16 16 15 14 14 14 14 14 14 14 14 14 13 14 14 15 16 16 16 17 17 17 16 16 16 15 15 14 13 13 13 13 12 12 12 12 11 11
16 16 16 16 15 15 15 15 14 13 14 14 14 14 14 14 14 14 14 15 15 16 16 16 16 17 17 16 16 15 15 14 14 14 13 13 13 12 12 12 11 11 11
17 16 15 15 15 15 14 15 14 14 13 14 14 14 14 14 15 15 15 15 16 16 16 16 16 17 17 16 16 15 15 15 14 14 13 13 13 13 12 12 12 12 11
16 16 16 16 16 14 14 14 14 13 14 14 14 15 15 15 15 15 15 16 16 16 16 16 17 16 17 17 16 15 15 15 14 14 14 14 13 13 13 13 12 12 12
15 16 15 15 15 14 13 13 13 13 13 14 14 14 14 14 14 15 15 15 16 16 16 16 16 16 17 17 17 14 15 15 15 15 15 14 14 13 13 13 13 13 12
14 15 14 14 14 14 13 13 13 13 13 14 13 14 14 14 14 15 15 15 16 16 16 16 16 15 16 17 16 15 12 13 13 14 14 14 15 14 14 14 13 13 13
14 14 13 14 13 14 14 12 12 12 13 13 13 13 13 14 14 14 15 15 16 16 16 16 16 16 16 16 17 16 12 13 14 14 14 14 15 14 15 14 14 14 14
14 13 14 14 14 14 14 12 12 12 12 12 12 13 13 14 14 14 15 14 15 16 16 16 16 17 17 15 16 17 17 17 13 13 15 15 15 15 15 15 15 15 14
13 13 14 14 14 14 13 13 13 12 12 12 12 12 13 13 13 13 14 15 15 16 16 16 16 16 17 17 17 16 17 16 17 12 11 13 14 15 15 15 16 15 15
13 13 13 14 14 13 12 13 12 12 12 11 12 12 12 12 13 13 14 14 14 15 15 14 14 15 16 18 18 17 17 15 14 13 11 11 13 16 16 16 15 15 16

GFSSE_925_temp_075.txt.gz
Temp
22 23 23 21 21 21 21 22 21 21 22 23 22 21 21 20 20 20 20 20 20 19 18 18 19 19 18 18 18 18 18 18 18 18 17 17 17 17 17 17 17 17 17
23 23 23 22 22 21 21 21 21 21 21 22 21 20 20 20 20 20 19 19 19 18 18 18 18 18 18 18 18 18 18 17 17 17 17 17 17 16 16 17 17 17 17
23 23 22 23 23 22 21 20 21 21 21 21 21 20 20 20 20 19 19 19 18 18 18 18 18 18 17 18 17 17 17 17 17 17 16 16 16 16 16 17 17 16 16
23 23 22 22 22 22 21 20 20 20 20 20 20 20 20 20 19 19 19 18 18 18 18 18 18 18 17 17 17 17 17 17 17 17 16 16 16 16 16 16 16 16 16
23 22 22 21 21 21 21 20 20 20 20 20 20 20 20 19 19 19 18 18 18 18 18 18 18 17 17 17 17 17 17 17 17 16 16 16 16 16 16 16 16 16 15
22 22 21 21 21 20 20 20 20 19 19 20 19 19 19 19 19 19 18 18 18 18 18 18 17 17 16 17 17 17 17 17 16 16 17 16 16 15 15 15 15 14 14
21 21 21 21 21 20 20 20 20 19 19 19 19 18 18 18 18 18 18 18 18 18 18 17 17 16 16 17 17 17 17 16 17 17 16 16 15 14 14 14 14 14 13
22 20 20 20 20 20 20 20 20 20 19 19 18 18 17 18 18 18 18 17 17 17 17 17 16 16 16 16 16 16 16 16 16 16 16 15 15 14 13 14 13 13 13
22 21 20 20 19 18 19 19 20 20 19 18 17 17 16 17 17 17 17 17 17 17 17 16 16 16 16 16 16 16 16 16 15 15 15 15 14 14 14 13 13 13 13
20 20 20 19 19 18 18 18 18 19 18 18 16 15 16 16 17 17 18 17 17 17 16 16 16 16 16 16 16 16 16 15 15 14 14 14 14 14 13 13 13 13 12
18 19 19 19 18 18 18 18 18 18 17 17 19 16 16 15 16 16 17 17 17 17 16 16 16 16 16 16 16 16 15 15 14 14 14 14 14 13 13 13 13 12 12
18 18 18 18 18 18 19 18 18 17 16 15 16 16 16 16 16 16 17 17 17 16 16 16 16 16 16 15 15 15 15 14 14 13 14 13 14 13 13 12 12 12 12
19 18 17 17 17 16 17 17 16 16 15 14 15 15 15 15 15 15 16 17 17 16 16 16 16 15 15 15 15 15 14 14 13 13 13 13 13 13 13 12 12 12 12
18 18 17 17 16 16 16 15 15 15 15 15 15 15 16 16 16 16 15 16 16 16 15 16 16 16 15 15 15 15 14 13 13 13 13 13 13 13 13 12 12 12 11
18 17 16 16 16 15 15 15 15 15 15 15 15 15 16 16 15 15 15 15 16 16 15 15 16 15 15 15 15 15 14 14 13 13 13 13 13 13 13 12 12 11 11
18 17 16 16 16 15 15 15 15 15 16 15 14 14 14 15 14 15 14 15 15 16 15 16 15 15 15 16 15 15 15 14 13 13 13 13 13 13 13 12 12 11 11
18 17 16 15 16 15 15 15 14 14 14 15 14 13 13 14 15 14 14 14 15 16 15 15 15 16 16 16 15 15 15 14 13 13 13 13 13 12 12 12 12 12 11
18 17 16 15 15 15 15 15 14 14 13 13 14 15 13 14 15 14 13 14 15 15 15 15 15 15 15 15 14 14 14 14 13 13 13 13 12 12 12 12 12 11 11
17 16 15 15 15 15 15 15 14 13 13 14 14 13 13 14 14 13 13 14 15 15 15 15 15 16 15 15 14 14 14 14 14 13 13 13 12 12 12 12 12 11 11
16 16 15 15 15 15 15 15 13 13 13 13 14 14 13 14 14 13 14 14 15 14 15 15 16 16 16 16 14 14 14 14 13 13 13 13 13 12 12 12 12 12 11
14 15 15 15 14 15 14 14 14 13 13 14 14 13 13 14 13 14 14 14 15 15 15 15 16 16 15 15 14 12 12 13 13 13 13 13 13 13 12 12 12 12 12
13 14 14 14 15 15 14 13 13 13 13 13 14 14 14 14 14 14 14 14 14 14 15 15 16 15 15 15 14 13 11 12 12 12 13 13 13 13 13 13 13 13 12
13 13 14 15 15 14 13 13 13 13 12 13 14 14 14 14 14 13 14 14 14 14 15 15 16 16 15 15 15 15 12 12 12 12 12 13 13 13 14 13 13 13 13
13 13 14 14 14 14 13 12 14 13 13 12 13 13 13 14 13 13 13 14 15 15 15 16 16 16 16 15 15 16 17 16 12 11 12 13 14 14 15 14 14 14 14
13 13 13 13 12 13 13 12 12 12 12 13 12 13 13 13 13 13 13 14 14 15 15 15 15 16 16 15 15 16 16 15 16 13 11 13 13 14 14 14 14 15 15
14 13 13 13 13 13 13 12 12 12 12 12 12 12 13 13 12 13 13 14 14 14 14 15 15 15 15 16 16 16 16 15 14 14 11 12 14 15 15 15 15 15 15

GFSSE_925_temp_081.txt.gz
Temp
20 21 22 21 22 21 22 22 23 23 22 22 22 22 21 21 20 20 20 19 19 19 19 18 19 18 18 18 18 18 18 18 18 18 18 18 17 17 18 18 18 18 18
25 23 22 22 22 21 22 22 22 22 22 22 21 21 21 21 21 20 20 19 19 19 18 18 19 19 18 18 18 18 18 18 18 18 18 18 17 17 17 17 17 17 18
25 24 22 22 21 21 21 22 22 21 22 21 22 21 21 21 20 20 20 19 19 19 18 18 18 18 18 18 18 18 18 18 18 17 18 17 17 17 17 17 17 17 17
25 24 21 21 19 20 20 21 21 21 21 21 21 21 21 20 20 20 19 19 19 19 19 18 18 18 18 18 18 18 17 17 17 18 17 17 17 16 16 17 17 17 17
23 23 22 20 18 19 20 20 21 21 20 20 20 20 20 20 21 20 20 19 19 19 19 18 18 18 18 18 18 17 17 17 17 17 17 17 17 16 16 16 16 16 16
23 23 22 21 18 18 20 20 21 21 20 19 19 20 21 21 20 20 19 19 19 19 19 18 17 18 17 17 17 17 17 17 17 17 17 16 16 16 15 16 16 16 16
23 22 21 20 18 18 19 20 20 21 21 20 19 20 20 19 19 19 19 19 19 19 18 18 17 17 17 17 17 17 17 16 17 17 17 16 16 15 17 16 16 16 16
23 22 21 20 18 18 18 19 19 20 20 20 18 19 19 20 19 18 18 18 19 18 18 17 17 17 17 17 17 17 17 16 16 17 17 16 15 17 16 15 15 15 15
22 22 21 20 19 18 18 18 19 19 20 19 19 18 19 18 17 16 17 18 18 18 18 17 17 17 16 17 17 17 17 16 16 16 16 16 17 16 14 14 14 14 14
21 21 20 20 19 18 18 18 18 18 19 19 18 18 17 18 19 19 17 17 17 17 17 17 17 17 16 17 17 17 17 17 16 16 16 16 16 14 14 13 14 13 13
20 20 20 19 18 18 18 18 18 17 18 18 18 18 18 18 17 17 16 17 17 17 16 17 17 16 16 16 16 16 16 16 16 16 16 15 15 14 14 13 13 13 13
18 19 19 19 18 18 18 18 17 17 17 17 17 17 17 17 18 18 18 17 16 16 17 17 16 16 16 15 15 16 15 15 15 15 15 15 14 14 13 13 13 13 13
17 18 19 19 18 18 17 17 17 17 16 17 16 17 16 17 17 17 17 17 16 15 15 16 16 15 15 15 15 15 15 15 15 15 14 14 14 13 13 13 13 13 12
17 17 17 17 17 17 17 17 17 17 16 16 16 16 16 15 15 14 14 16 15 15 15 15 15 15 14 14 14 15 14 14 14 14 14 14 14 14 13 13 13 12 13
18 16 17 17 16 16 16 16 17 17 17 16 15 16 15 14 14 14 14 16 15 15 15 15 15 14 14 14 14 14 14 13 13 14 14 14 14 14 13 13 12 12 12
18 16 16 16 16 16 16 17 17 17 16 15 15 15 15 14 14 14 14 15 14 15 14 15 15 14 14 14 14 14 13 13 13 13 14 13 14 14 13 13 12 12 12
18 16 15 15 15 16 16 16 16 16 15 15 15 15 15 14 14 14 14 14 14 14 14 14 14 14 14 14 14 13 13 13 13 13 13 14 13 13 14 14 13 12 12
18 16 15 15 16 15 15 15 16 15 15 15 15 14 14 14 14 14 14 14 14 14 14 14 14 14 14 14 13 13 13 13 13 13 13 13 13 13 13 13 13 12 12
17 16 15 15 15 15 15 14 15 15 14 14 14 14 14 14 13 14 14 14 14 14 14 14 14 14 14 14 14 13 13 13 13 13 13 13 13 13 13 13 12 12 12
17 16 15 15 14 15 14 14 14 13 14 13 14 14 13 13 13 14 14 14 14 13 12 13 13 13 14 14 14 13 13 13 13 13 13 12 12 12 13 13 12 12 12
16 15 15 14 14 14 14 13 13 13 13 13 13 13 14 14 13 14 14 14 14 13 12 13 13 13 13 14 13 12 12 12 12 12 12 12 12 12 12 12 12 12 12
15 14 14 14 14 14 14 13 13 13 13 13 14 14 13 13 13 13 13 13 13 12 12 13 13 13 13 13 14 14 13 13 12 12 12 12 12 12 12 11 12 12 12
16 14 14 13 14 13 13 13 13 13 13 13 13 13 13 13 13 13 13 12 12 12 12 13 13 14 14 13 14 16 14 16 14 13 12 12 12 12 12 11 11 12 13
16 15 13 13 13 13 13 14 14 13 13 13 13 13 12 12 13 13 13 13 13 12 12 13 13 14 14 13 13 14 15 15 17 15 13 12 12 12 12 12 12 12 11
16 15 13 13 13 13 13 14 13 13 13 13 13 13 13 12 12 12 12 14 12 12 12 13 13 14 14 14 14 14 14 14 14 15 15 13 13 13 12 12 12 13 13
15 14 12 12 12 13 13 13 13 14 13 13 13 13 13 13 12 12 12 12 13 13 13 13 14 13 14 14 14 14 15 15 14 14 15 15 15 14 12 13 12 14 14

GFSSE_925_temp_084.txt.gz
Temp
25 24 24 24 24 23 23 22 23 22 22 22 22 22 21 21 21 20 20 20 20 20 20 19 19 19 18 18 19 19 19 19 19 18 18 18 18 18 18 18 19 18 18
25 23 24 24 23 22 22 22 23 23 22 22 22 22 21 21 20 20 20 20 20 20 20 19 19 18 18 18 19 19 19 18 18 18 18 18 17 17 18 18 19 18 18
24 23 22 24 22 21 21 22 22 22 22 21 21 21 21 21 20 20 20 20 20 20 19 18 19 19 19 19 19 18 18 18 18 18 19 19 18 17 18 18 18 17 18
25 23 21 22 22 20 21 21 22 22 21 21 21 21 20 20 19 20 20 20 20 20 19 19 18 18 18 18 18 18 18 18 18 19 19 19 18 17 17 17 17 17 17
24 23 22 22 21 20 21 21 22 22 21 21 20 19 20 19 19 20 19 19 20 19 19 19 19 18 18 18 18 18 18 18 18 20 20 19 18 17 17 17 17 17 17
23 22 21 22 19 20 21 21 21 21 21 20 20 19 19 21 21 19 19 19 19 19 19 19 18 18 18 18 18 18 18 18 19 21 18 18 17 16 16 16 16 16 16
23 22 21 22 21 21 20 20 21 21 20 19 19 21 20 20 19 19 20 20 19 19 19 19 18 18 18 18 18 18 18 18 19 19 18 17 16 16 16 16 16 16 16
23 21 20 21 20 19 19 20 20 21 21 19 20 21 20 20 20 20 19 19 19 19 19 18 18 18 17 17 17 17 17 18 19 19 19 18 16 15 16 16 16 16 16
22 21 19 19 18 18 18 19 20 20 20 21 20 21 20 20 19 18 17 18 18 17 18 18 18 17 17 17 17 17 17 18 19 19 18 17 15 15 16 16 15 15 16
21 19 19 19 18 18 18 18 19 19 19 19 20 20 20 19 19 18 17 18 18 17 17 18 18 18 17 17 17 17 17 18 20 19 19 16 15 15 14 14 14 14 15
21 21 19 18 18 18 18 18 18 18 18 19 19 19 18 18 17 17 18 18 17 18 18 17 18 18 18 17 17 17 17 19 19 19 18 16 15 14 14 14 13 14 14
22 21 20 18 18 18 18 18 18 18 18 18 17 18 18 17 16 16 16 17 18 18 18 17 18 18 18 16 16 16 18 18 19 19 16 15 15 14 14 13 13 13 13
24 20 19 18 18 19 18 17 18 18 17 17 17 18 17 17 16 16 17 17 17 17 17 16 17 18 17 17 17 17 18 18 19 19 15 15 15 14 13 14 13 13 13
24 20 18 17 18 18 17 17 18 17 17 17 17 16 17 17 17 17 16 17 16 17 16 15 16 16 16 17 17 17 18 19 18 18 16 15 15 14 14 13 13 13 13
24 22 18 17 17 17 17 16 17 17 16 17 16 15 16 16 17 17 17 17 15 15 16 15 16 16 16 17 17 17 17 18 18 18 16 14 14 14 14 14 13 13 13
25 23 19 18 18 18 18 16 16 16 17 16 16 16 15 16 16 16 16 15 14 15 15 15 16 16 17 17 17 17 17 17 16 17 17 14 14 14 13 13 13 13 13
25 23 19 18 17 18 18 18 16 16 15 15 15 15 15 16 16 16 16 15 14 15 15 15 16 16 18 18 17 17 17 16 16 16 17 15 14 14 14 14 13 13 13
25 23 19 17 17 17 18 17 16 15 15 15 15 15 14 15 15 15 15 15 14 14 15 15 15 17 18 18 17 17 17 16 16 15 16 16 14 14 13 13 13 13 13
25 23 19 17 17 17 17 16 16 15 15 15 15 15 14 14 14 15 15 15 14 14 14 16 15 17 18 18 17 17 17 16 15 16 16 16 16 14 15 13 13 13 13
24 22 20 17 18 17 15 15 15 14 14 15 15 15 14 14 14 14 14 14 14 13 13 14 15 16 18 18 17 17 16 16 16 16 16 16 16 15 16 14 13 13 12
23 21 20 17 17 15 15 15 14 15 14 14 14 14 14 14 14 14 14 14 14 13 13 14 15 16 16 17 17 16 16 15 15 15 15 15 16 15 15 16 15 15 13
22 21 19 17 16 16 16 16 15 14 14 15 15 15 15 14 14 14 14 14 13 13 13 14 15 15 17 16 17 16 15 15 14 14 15 15 16 15 15 14 15 15 15
22 21 18 17 17 16 17 15 15 14 14 14 15 15 14 14 13 13 13 13 13 13 12 13 14 16 16 17 17 18 16 18 16 15 15 15 15 15 15 15 15 14 14
22 21 17 17 17 15 16 15 16 16 15 16 14 13 13 13 13 13 13 13 13 13 12 12 14 16 17 16 17 17 18 20 19 17 16 15 15 14 15 15 15 14 14
22 20 17 16 17 15 15 17 16 16 16 16 14 13 13 13 13 13 13 13 13 12 12 12 13 15 16 16 17 17 17 18 18 20 19 17 16 16 16 15 15 15 14
22 20 16 15 15 15 15 17 16 16 15 15 13 13 13 12 12 12 12 12 12 12 12 12 14 15 15 16 16 16 17 17 18 19 20 19 18 17 16 16 15 15 15

GFSSE_925_temp_087.txt.gz
Temp
30 24 25 25 24 23 23 23 22 22 23 23 22 22 22 21 21 21 21 21 21 20 20 19 19 20 20 20 20 20 20 20 20 20 19 19 18 19 19 19 19 18 18
29 24 25 25 24 23 22 22 22 22 22 22 23 22 21 21 21 21 20 20 20 20 20 19 19 19 18 19 19 19 19 19 19 19 19 18 18 18 18 19 19 17 18
27 24 24 24 24 23 22 22 22 22 22 22 22 22 21 21 21 20 20 20 20 20 20 19 19 19 19 19 19 19 19 19 19 19 19 20 18 18 18 18 18 18 18
28 25 23 24 23 22 22 22 22 22 21 21 21 21 21 21 20 21 20 20 20 20 19 19 19 19 19 19 19 18 19 19 19 19 20 20 18 18 18 18 17 17 17
28 26 24 24 23 22 22 22 22 22 22 21 20 20 20 20 20 21 21 20 20 20 19 19 19 19 19 18 18 18 19 19 19 19 19 19 18 17 17 17 17 17 17
28 27 25 25 24 22 22 21 22 21 21 20 20 20 20 21 21 21 20 20 20 20 19 19 19 19 18 18 18 18 19 19 19 19 18 18 18 17 17 17 17 17 17
27 26 24 24 24 22 21 21 21 21 19 19 19 20 21 21 20 20 20 20 20 20 20 19 19 19 18 18 18 18 19 20 19 19 18 17 16 17 16 16 17 16 16
26 24 22 23 23 22 21 21 21 21 19 19 20 20 21 20 20 20 20 20 20 18 18 19 19 18 18 18 18 18 19 20 20 19 17 17 16 16 16 16 16 16 16
25 24 22 20 19 20 20 20 20 20 20 19 21 21 21 20 20 20 19 19 19 17 17 17 18 18 18 18 19 18 19 19 19 18 17 17 16 15 15 16 16 16 15
24 23 22 21 20 19 19 19 19 19 19 19 20 20 20 20 19 19 19 19 18 19 18 17 18 19 19 19 19 18 19 19 19 19 18 16 16 15 15 14 14 14 15
24 23 21 20 21 20 19 19 18 19 19 19 19 20 20 19 19 19 19 18 18 19 19 18 18 18 19 19 18 18 19 20 19 18 18 16 15 15 14 15 15 14 14
25 24 22 19 19 19 20 19 19 19 19 19 19 19 19 19 18 18 18 18 18 18 18 18 18 18 18 17 17 19 19 19 18 18 16 16 15 15 14 14 14 14 14
27 25 23 21 19 19 20 20 21 20 19 19 19 19 20 18 17 17 16 17 16 18 18 17 17 18 18 17 17 17 19 18 19 18 15 15 15 14 14 13 13 13 13
28 26 24 22 19 21 22 21 21 19 19 19 18 18 18 17 17 17 17 16 16 17 17 17 17 17 17 17 17 18 18 19 21 17 15 15 15 14 14 14 13 13 13
29 27 24 22 20 22 21 19 19 18 18 17 18 17 18 17 17 17 17 17 17 16 16 16 16 16 16 17 18 18 18 20 21 20 16 15 15 14 14 14 14 13 13
29 28 24 22 21 21 19 18 17 17 17 17 18 17 17 17 17 17 17 17 17 16 15 16 16 16 16 17 17 18 20 20 19 20 17 14 14 14 14 14 13 13 13
29 29 25 22 21 20 20 19 17 17 17 16 17 17 17 17 17 17 18 16 16 15 15 16 15 15 16 17 18 19 19 19 18 19 18 16 14 14 15 14 14 13 13
30 29 26 22 21 21 21 21 19 16 16 16 17 17 17 17 17 17 17 16 16 15 15 15 14 15 16 18 19 19 19 19 18 18 18 16 15 15 14 14 14 14 13
30 29 26 22 21 20 21 21 20 17 16 17 16 16 16 16 16 16 16 15 16 15 14 14 14 15 16 18 18 19 19 19 18 18 18 16 15 15 14 14 14 14 13
30 28 26 22 21 20 21 19 18 17 17 16 15 15 15 15 15 15 15 15 15 15 14 14 14 15 16 18 18 19 19 18 18 18 18 18 17 15 16 14 13 13 13
29 27 26 22 20 20 19 17 18 16 16 15 14 15 15 15 14 14 15 14 14 14 14 14 14 15 15 18 18 17 17 17 16 16 17 18 18 17 16 16 15 15 13
27 26 25 22 21 19 18 19 18 18 18 17 16 15 14 15 14 14 14 14 14 14 14 14 14 14 15 18 17 16 15 15 15 15 16 16 18 18 17 17 16 16 16
27 26 25 23 21 19 19 20 19 18 17 16 15 16 16 15 15 14 14 14 14 14 13 14 14 14 15 17 17 18 16 17 16 15 15 15 16 17 18 17 16 16 16
26 25 24 23 21 20 20 20 19 18 18 17 18 18 17 15 15 15 14 14 14 13 13 13 14 15 15 16 16 18 18 20 18 16 16 15 16 16 17 17 17 16 16
27 25 24 22 21 20 20 20 19 19 20 19 18 16 15 14 13 13 13 13 13 13 13 13 13 14 15 17 17 18 18 19 19 19 18 16 16 17 16 16 17 16 16
28 25 23 21 21 19 20 19 19 20 19 18 16 15 14 13 13 13 13 13 13 13 13 13 13 14 14 16 17 17 19 19 20 20 19 19 18 18 18 17 16 16 16

GFSSE_925_temp_093.txt.gz
Temp
23 24 25 26 25 25 24 24 24 24 24 24 23 23 23 23 23 22 22 22 21 21 21 21 20 20 21 21 20 20 20 20 20 20 19 19 19 19 19 19 19 18 18
25 24 25 25 25 24 24 24 23 23 23 23 23 23 23 23 23 22 21 21 20 21 21 20 20 20 20 20 20 20 20 20 20 20 19 19 19 19 19 19 18 18 18
26 24 25 25 25 24 23 23 23 23 23 22 22 22 22 23 22 22 21 21 20 21 20 20 19 20 20 20 20 20 20 20 20 20 19 19 18 18 19 18 18 18 18
27 25 24 25 25 24 23 23 22 22 22 22 22 22 22 22 22 21 21 21 20 20 19 19 19 19 20 20 20 20 20 19 19 19 19 18 18 18 18 18 18 17 17
26 25 25 25 25 24 23 22 22 22 22 22 22 21 21 21 21 21 21 20 20 20 20 20 19 19 19 19 20 19 19 19 19 19 19 18 18 17 17 17 17 17 17
26 25 25 25 24 24 23 22 22 21 21 21 21 21 21 21 21 21 21 20 20 20 20 20 19 19 19 19 19 19 19 19 18 18 18 18 17 18 17 17 17 17 17
26 25 25 25 24 23 22 22 21 21 21 21 20 20 20 20 20 21 21 20 20 20 20 19 19 19 19 19 19 19 19 18 18 18 18 18 17 17 17 17 17 17 17
26 25 25 24 23 22 22 22 21 21 20 19 19 19 20 20 20 20 20 20 19 19 19 19 19 19 19 19 19 19 18 18 18 18 18 17 17 17 17 17 17 16 16
26 25 24 23 22 22 21 21 21 20 20 19 19 19 19 20 20 20 20 19 19 19 19 19 20 20 19 19 19 18 19 18 18 18 17 17 17 17 16 16 16 16 16
26 25 24 22 22 22 21 21 21 20 21 18 19 19 19 19 19 20 20 19 19 19 20 20 19 20 21 19 19 18 19 18 18 17 17 17 17 16 16 16 16 16 16
24 24 23 22 21 21 20 20 20 20 20 20 18 19 19 19 19 19 19 19 19 19 19 19 19 20 20 19 19 19 18 18 18 17 18 17 16 16 16 15 16 15 15
23 23 23 22 21 21 20 20 20 19 20 20 19 19 19 19 19 19 19 19 19 19 19 19 18 18 19 19 19 19 18 18 17 17 18 17 17 16 15 15 15 14 15
24 23 22 21 20 20 19 19 19 19 19 20 20 20 19 19 19 19 18 18 18 19 18 18 18 18 18 19 19 19 18 18 18 18 17 17 16 15 15 14 15 15 14
23 23 23 22 21 20 20 20 20 19 19 20 19 19 19 19 19 18 18 17 18 18 18 18 18 18 18 18 19 19 18 18 18 18 17 17 16 15 14 14 14 14 13
24 23 23 23 22 21 20 20 20 20 20 20 19 19 19 19 18 18 18 17 17 17 17 17 17 17 17 18 18 18 18 18 17 17 16 16 15 15 14 14 14 14 13
28 23 22 23 22 22 21 20 20 20 20 19 19 19 19 19 18 18 18 17 17 16 16 16 16 17 17 17 17 17 18 17 17 16 15 15 15 14 14 14 14 13 13
29 26 21 23 22 21 21 21 20 20 20 19 19 19 18 18 18 18 18 19 16 16 16 16 16 17 17 17 17 17 18 17 17 16 16 14 14 14 14 14 14 13 13
28 28 22 22 22 21 21 21 21 20 19 19 18 18 18 18 18 18 18 18 18 17 15 16 16 16 16 16 16 16 17 17 17 16 15 15 14 14 14 14 14 14 13
28 28 24 21 22 21 21 21 20 20 18 18 17 18 17 18 17 17 17 17 17 16 16 16 16 16 15 14 14 15 15 15 16 16 15 14 14 14 14 14 14 13 14
29 28 25 21 22 21 20 20 20 19 18 17 17 17 17 17 17 17 17 17 16 16 16 15 15 15 15 14 14 14 14 15 16 16 15 15 14 14 14 14 14 14 14
28 27 25 21 20 20 19 18 17 16 17 17 17 18 17 17 17 17 16 16 16 16 16 16 14 14 14 14 14 13 14 16 16 15 15 15 15 15 14 14 14 14 13
27 26 24 20 19 20 19 18 17 17 17 17 17 17 17 16 16 16 16 16 16 16 16 16 14 14 14 14 13 13 13 15 16 17 16 16 15 15 15 14 14 14 14
25 24 22 20 20 19 20 19 18 17 17 17 17 16 16 16 16 16 16 17 17 16 16 15 14 14 14 14 14 14 14 15 15 15 16 15 15 15 15 15 15 15 14
26 24 21 20 19 19 20 19 19 17 16 16 16 16 16 16 15 15 16 17 17 16 15 15 15 14 14 13 13 15 16 16 14 13 16 15 15 15 14 15 15 15 15
24 22 20 20 19 20 19 19 19 17 17 16 16 16 16 16 15 15 15 16 15 15 14 14 14 13 14 14 14 14 15 17 16 14 12 15 15 16 16 16 15 15 15
19 21 20 20 19 19 19 19 18 18 17 17 16 16 15 15 14 15 15 15 15 14 14 14 14 13 13 13 13 14 15 15 15 15 13 14 15 15 16 16 16 16 16